Retour au catalogue

STARLINK-36999

ActifCommunicationsVLEO
NORAD 68268·PAYLOAD·🇺🇸 United States

Lancé Mar 19, 2026 depuis Vandenberg Space Force Base

Loading…

Prochains Passages (prochaines 24 heures)

TLE

FraisSource: CelesTrak SupGP

Époque: Sep 14, 2026, 21:40 UTC

1 68268C 26055G   26257.90326389 -.00017221  00000+0 -50888-3 0  2573
2 68268  53.1569 155.5996 0001490 103.0410  36.4565 15.34393481    15

Suivez STARLINK-36999 en temps réel avec AllMySat

Download on the App Store